Location: Holmbach
(49.5093°N, 8.8411°E)
Time: 21:21:47
(UTC+00:00)

Meteor 1-22 Rocket - Pass Details

Date: 17 June 2025
Orbit: 789 x 936 km, 81.2° (Epoch: 16 July)

Event Time Altitude Azimuth Distance (km) Brightness Sun altitude
Rises 20:26:53 0° 347° (NNW) 3,312 8.6 -7.0°
Reaches altitude 10° 20:29:14 10° 347° (NNW) 2,389 7.7 -7.2°
Maximum altitude 20:34:38 85° 259° (W) 827 4.2 -7.8°
Drops below altitude 10° 20:40:10 10° 172° (S) 2,450 6.1 -8.3°
Enters shadow 20:41:04 - 172° (S) 2,798 6.4 -8.4°
